sat.trackr.live / text

‹ back to catalog

STARLINK-2731

NORAD 48651 · 2021-044P

PAYLOAD ACTIVE UNKNOWN

§ Identity

Operator
Country
US
Launch date
2021-05-26
Launch site
AFETR
Launch vehicle
Mass (kg)
RCS (m²)

Purposes: comms

External: N2YO · Heavens-Above · Gunter

§ Orbital elements

Epoch: 2026-09-19T14:15:47.238336Z

Period
94.01 min
Inclination
53.1627°
Eccentricity
0.0002629
Mean motion
15.31719610 rev/d
Perigee alt
468.9 km
Apogee alt
472.5 km
Semi-major
6,848.8 km
B*
1.9540e-4
RAAN
291.5453°
Arg perigee
36.7115°
Mean anomaly
323.4066°
Rev number
29,353

§ Raw data

STARLINK-27311 48651U 21044P   26262.59429674  .00005706  00000+0  19540-3 0  99982 48651  53.1627 291.5453 0002629  36.7115 323.4066 15.31719610293531

JSON: /api/v1/satellites/48651 · /tle

For live sub-satellite position, see the globe view (requires WebGL).

§ Visibility from observer

Set your observer location to see the next 7 days of passes ≥ 10°. The values pass through the URL so the page stays shareable.

No JS? Fill the form by hand. The geolocation button needs JavaScript.